Location: Donzy-le-Pr�
(47.3659°N, 3.1107°E)
Time: 18:03:19
(UTC+00:00)

MOS 1 - Pass Details

Date: 03 March 2021
Orbit: 878 x 891 km, 99.1° (Epoch: 19 April)

Event Time Altitude Azimuth Distance (km) Brightness Sun altitude
Exits shadow 19:26:08 23° 145° (SE) 1,784 5.5 -19.4°
Maximum altitude 19:29:41 65° 70° (ENE) 977 4.2 -20.0°
Drops below altitude 10° 19:35:19 10° 350° (N) 2,559 7.0 -20.9°
Sets 19:37:44 0° 348° (NNW) 3,500 7.8 -21.3°
